Starlink 31776

operational
NORAD ID: 59603 Int'l Des: 2024-080 Owner: SPXS Country: US Constellation: starlink
LEOCIRCULAR

关于 Starlink 31776

正在加载描述...

实时位置

正在加载3D地球...

即将过境

高度历史

Altitude vs Time

uPlot chart will show altitude changes over time

两行轨道根数

1 59603U 24080C 25354.66373769 .00000278 00000-0 19635-4 0 9998
2 59603 43.0000 127.9238 0001266 273.1292 86.9415 15.27578353 92409
Epoch: Dec 20, 2025 • Age: 11 hours

当前状态

高度 486.8 km
速度 7.63 km/s
星下点 42.20°N, 61.64°E
发射日期 Apr 28, 2024
运行时间 1.6 years
类型 internet

技术详情

分类 Payload
质量 730.00 kg
干质量 700.00 kg
总质量 730.00 kg
长度 0.30 m
直径 4.10 m
跨度 29.00 m
形状 Box + pan
制造商 SPXS
平台类型 Starlink V2M
阶段状态 In Orbit
所有者/国家 SPXS/US

大型星座

Loading constellations...